Preview of NWS' New Version of Forecast
This preview is not operational and should not be used for support decisions.

Regional Weather Roundup (RWR)

Issued by Gray - Portland, ME (GYX)

                            
673 
ASUS41 KGYX 181205
RWRGYX
WEATHER ROUNDUP FOR MAINE AND NEW HAMPSHIRE
NATIONAL WEATHER SERVICE GRAY ME
700 AM EST SUN FEB 18 2018

MEZ002-005-006-010-012-015-018-020-021-024-026-027-029-181300-
MAINE
  
CITY           SKY/WX    TMP DP  RH WIND       PRES   REMARKS
PORTLAND       LGT SNOW  29  28  96 VRB3      29.98R VSB 3/4          
6HR MIN TEMP:  29; 6HR MAX TEMP:  33; 6HR PCP:  0.34;                

SANFORD        LGT SNOW  29  27  92 NW7       29.98R FOG              
BAR HARBOR     LGT SNOW  32  31  96 NW3       29.96R VSB 3/4          
WISCASSET      LGT SNOW  29  28  96 CALM      29.99R VSB 3/4          
6HR MIN TEMP:  29; 6HR MAX TEMP:  33; 6HR PCP:  0.31;                

ROCKLAND       LGT SNOW  32  32 100 NW5       29.96R VSB 3/4          
FRYEBURG       CLOUDY    25  25 100 CALM      29.99R                  
6HR MIN TEMP:  25; 6HR MAX TEMP:  26; 6HR PCP:  0.15;                

LEWISTONAUBURN LGT SNOW  27  26  96 N5        29.99R VSB 1            
AUGUSTA        LGT SNOW  25  24  96 N8        29.99R VSB 1            
6HR MIN TEMP:  25; 6HR MAX TEMP:  30; 6HR PCP:  0.15;                

WATERVILLE     SNOW      26  24  92 N3        29.94R VSB 1/2          
BANGOR         SNOW      26  25  96 N7        29.98R VSB 1/2          
6HR MIN TEMP:  26; 6HR MAX TEMP:  31; 6HR PCP:  0.13;                

GREENVILLE       N/A     20  19  96 CALM      29.91R                  
6HR MIN TEMP:  18; 6HR MAX TEMP:  21; 6HR PCP:  0.14;                

MILLINOCKET    LGT SNOW  21  20  96 NW3       30.01R FOG              
6HR MIN TEMP:  20; 6HR MAX TEMP:  21; 6HR PCP:  0.18;                

HOULTON        LGT SNOW  20  17  88 NE5       29.99R VSB 3/4          
6HR MIN TEMP:  20; 6HR MAX TEMP:  23; 6HR PCP:  0.10;                

PRESQUE ISLE   LGT SNOW  18  16  92 CALM      30.00R FOG              
6HR MIN TEMP:  18; 6HR MAX TEMP:  20; 6HR PCP:  0.03;                

FRENCHVILLE    CLOUDY    16  14  92 SE5       29.94S FOG              
6HR MIN TEMP:  15; 6HR MAX TEMP:  16; 6HR PCP: TRACE;                

CARIBOU        LGT SNOW  19  15  84 CALM      29.98R FOG              
6HR MIN TEMP:  19; 6HR MAX TEMP:  20; 6HR PCP:  0.06;                

$$

NHZ002-005-008-009-011-012-014-181300-
NEW HAMPSHIRE
  
CITY           SKY/WX    TMP DP  RH WIND       PRES   REMARKS
PORTSMOUTH     LGT SNOW  30  30  98 NW5       29.96R FOG              
ROCHESTER      CLOUDY    28  27  96 NW13      29.96R WCI  17          
6HR MIN TEMP:  28; 6HR MAX TEMP:  30; 6HR PCP:  0.20;                

NASHUA         FAIR      27  27 100 W6        30.01R                  
MANCHESTER     FAIR      28  26  92 NW6       29.98R                  
6HR MIN TEMP:  28; 6HR MAX TEMP:  30; 6HR PCP:  0.20;                

CONCORD        CLOUDY    27  24  89 NW7       30.00R                  
6HR MIN TEMP:  27; 6HR MAX TEMP:  29; 6HR PCP:  0.19;                

LACONIA        CLOUDY    26  24  92 CALM      29.99R                  
PLYMOUTH       MOCLDY    27  25  92 W5        30.00R                  
BERLIN         LGT SNOW  24  22  91 CALM      29.97R FOG              
6HR MIN TEMP:  23; 6HR MAX TEMP:  25; 6HR PCP:  0.08;                

WHITEFIELD     LGT SNOW  25  24  96 CALM      29.99R FOG              
6HR MIN TEMP:  25; 6HR MAX TEMP:  26; 6HR PCP:  0.15;                

JAFFREY        MOCLDY    29  27  92 W3        29.98R                  
6HR MIN TEMP:  28; 6HR MAX TEMP:  30; 6HR PCP:  0.16;                

KEENE          FAIR      25  24  96 S3        30.02R                  
LEBANON        MOCLDY    24  23  96 CALM      30.02R FOG              
6HR MIN TEMP:  24; 6HR MAX TEMP:  29; 6HR PCP:  0.07;                

MT WASHINGTON  SNOW       7   7 100 NW49G59     N/A  VSB 0   WCI -21  
6HR MIN TEMP:   7; 6HR MAX TEMP:  11; 6HR PCP:  0.30;                

$$

VTZ005-007-008-181300-
VERMONT
  
CITY           SKY/WX    TMP DP  RH WIND       PRES   REMARKS
ST JOHNSBURY     N/A     24  24 100 MISG      30.00R                  
MONTPELIER     LGT SNOW  25  24  96 NW7       30.05R VSB 1            
BURLINGTON     CLOUDY    30  25  81 W3        30.08R                  
$$

MAZ007-012-024-CTZ003-RIZ002-NYZ038-NYZ072-181300-
SOUTHERN NEW ENGLAND AND NY
  
CITY           SKY/WX    TMP DP  RH WIND       PRES   REMARKS
BOSTON         LGT SNOW  32  31  96 NW10      29.98R FOG              
WORCESTER      FAIR      28  25  88 W18       29.96R WCI  15          
NANTUCKET      RAIN      37  37 100 NW21G28   29.91R                  
PROVIDENCE     MOCLDY    33  31  92 NW7       29.99R                  
HARTFORD       MOCLDY    33  26  75 NW14G23   30.04R                  
ALBANY         FAIR      31  23  72 NW6       30.13R                  
NEW YORK CITY  FAIR      36  29  75 NW15      30.12R                  
$$

ANZ081-ANZ082-ANZ150-NHZ014-MEZ023>029-181300-
COASTAL MARINE OBSERVATIONS
  
STATION/POSITION TIME  TEMP    WIND        PRES    WAVE
                       AIR SEA DIR/SP/G            HT/PER
                 (UTC) (F)     (DEG/KT/KT) (MB)    (FT/S)
MOUNT DESERT ROC 1200   35      90/ 17/ 19 1013.1R
MATINICUS ROCK   1100   32     240/  5/  5 1012.8R
ISLE OF SHOALS   1100   32     330/ 17/ 18 1013.2R
JEFFREYS LEDGE   1136      41                N/A     7/ 7
GEORGES BANK BUO 1050   30 42              1028.1   10/10
$$

.............KEY..............
   WCI - WIND CHILL
   TC  - TEMPERATURE IN CELSIUS
   VSB - VISIBILITY IN MILES
   HX  - HEAT INDEX
   FAIR- INDICATES FEW OR NO CLOUDS BELOW 12,000 FT, WITH NO 
         SIGNIFICANT WEATHER AND/OR OBSTRUCTIONS TO VISIBILITY.